Theta_e
328 328 327 327 327 327 327 327 327 328 328 328 327 327 328 327 327 327 327 327 327 326 326 327 327 326 326 327 326 326 325 325 325 324 324 324 325 325 325 325 325 324 324 323 323 322 321 320 319 319 319 318 317 317 317 317 318 317 317 317 316 316 316 316 316 316 315 315 313
328 327 327 327 326 327 327 327 327 328 328 328 328 328 328 328 327 327 327 327 327 327 327 327 328 327 327 327 326 326 326 325 325 325 324 324 325 325 325 324 324 324 324 323 323 322 321 321 320 319 319 319 318 318 318 318 318 317 317 316 316 315 315 315 315 315 315 314 313
328 328 327 327 327 327 327 327 327 327 328 328 328 328 328 328 328 327 327 328 328 328 328 328 328 328 328 328 327 327 326 326 325 325 324 324 325 325 324 324 324 324 323 323 323 322 322 321 320 319 319 319 319 319 318 319 319 318 317 317 316 315 314 314 314 315 314 313 313
328 328 327 327 327 327 327 327 327 327 328 328 329 329 329 328 328 328 328 329 329 328 328 328 328 328 328 328 328 327 327 326 325 325 325 325 325 325 324 324 324 323 323 323 323 323 322 321 320 320 319 319 319 318 319 319 319 319 318 318 317 316 314 313 314 314 313 312 312
327 328 328 327 327 327 327 328 327 328 328 328 328 328 328 328 329 328 328 328 328 328 329 329 329 329 328 328 328 327 327 326 325 325 325 325 325 325 325 325 324 323 323 323 323 322 321 321 320 320 320 320 320 320 319 319 320 320 320 319 318 316 315 313 313 312 311 311 311
327 328 328 328 328 328 328 328 328 328 328 328 328 327 328 328 328 328 328 328 328 329 329 329 328 328 328 328 328 327 327 327 326 326 325 325 325 325 325 325 324 323 323 323 323 323 322 320 320 320 321 321 321 321 321 321 320 319 319 318 317 316 315 313 312 311 310 310 309
328 328 328 328 328 328 328 328 328 328 328 328 328 328 327 327 328 328 328 328 328 329 329 328 328 328 328 328 328 328 327 327 326 326 326 325 325 325 325 325 324 324 323 323 323 322 321 321 321 320 320 321 321 321 321 321 320 320 319 318 316 315 314 313 312 311 310 309 308
328 328 328 328 328 328 328 328 328 328 328 327 327 328 328 328 328 328 328 328 328 328 328 328 329 329 328 328 327 327 327 327 326 326 326 326 326 326 325 325 324 324 323 324 323 322 322 320 321 320 321 321 321 322 321 319 319 319 318 317 316 315 314 313 312 310 310 309 308
329 328 329 329 329 328 328 328 328 328 328 327 327 328 328 328 328 328 328 328 328 328 328 328 329 329 328 328 328 327 327 327 326 326 326 326 326 325 325 325 324 324 324 324 323 322 321 320 320 320 321 321 322 322 321 320 319 319 318 318 315 314 314 314 312 310 310 309 309
329 329 329 328 329 329 329 329 329 328 328 328 328 328 328 327 328 328 328 328 328 328 328 328 329 329 328 328 328 327 327 327 326 326 326 326 326 325 326 325 324 324 324 324 323 322 321 320 320 320 321 322 322 322 322 322 320 319 318 316 315 314 313 312 312 312 311 310 309
328 328 328 328 329 329 329 329 328 328 328 328 328 328 328 327 328 328 328 329 328 328 329 329 329 328 328 327 327 327 327 327 326 326 326 326 326 326 326 325 325 324 324 324 324 322 321 321 320 321 321 322 322 322 322 321 320 318 317 314 314 313 312 311 311 311 311 309 308
328 329 329 329 329 328 328 328 328 328 328 328 328 328 328 328 328 328 328 328 328 328 329 329 328 328 328 327 328 328 327 327 327 326 326 326 326 326 326 326 325 325 325 325 324 323 321 321 321 321 321 322 322 321 320 320 318 316 315 313 312 312 311 310 310 309 309 307 306
328 329 329 329 328 329 328 328 328 328 328 328 328 328 328 328 328 328 328 328 328 328 328 328 328 328 328 328 328 328 328 327 327 327 326 326 326 326 326 325 325 325 325 325 324 323 322 322 322 322 322 322 320 319 318 317 315 314 313 312 312 311 310 309 308 307 306 305 304
328 328 328 328 328 328 328 328 328 327 327 327 328 328 328 328 328 328 328 328 328 328 328 328 328 328 328 328 328 328 328 327 327 327 327 327 327 327 326 326 325 325 325 324 323 323 323 322 322 323 323 321 319 318 317 316 314 313 312 312 311 310 309 308 306 306 305 304 303
328 328 328 328 328 328 327 327 327 327 327 327 328 328 328 328 328 328 328 328 328 328 328 327 327 327 327 328 328 328 327 327 327 327 326 326 326 326 326 325 325 325 324 323 323 323 323 322 322 323 322 320 318 317 316 315 314 313 312 311 310 309 308 306 305 305 304 303 303
328 328 328 328 327 327 327 327 327 327 327 327 328 327 327 327 328 328 328 328 328 328 328 327 326 326 326 327 327 328 328 327 327 327 326 326 327 327 326 325 325 325 324 323 323 323 323 322 322 322 321 319 317 315 314 314 313 312 312 311 309 308 306 305 305 304 303 303 302
328 327 328 327 327 327 327 327 327 327 327 327 328 327 327 327 328 327 327 328 328 327 327 326 326 326 326 326 327 327 327 327 327 327 327 327 327 326 326 325 325 324 324 323 322 322 322 322 322 321 320 317 315 314 312 312 311 310 310 308 307 306 305 305 304 303 303 302 301
327 327 327 327 327 327 326 327 326 327 327 327 327 327 328 328 327 327 327 327 328 327 326 326 326 326 326 326 326 326 326 327 327 327 327 327 327 327 326 325 325 324 324 322 322 321 321 320 319 318 316 314 313 312 310 310 309 308 308 306 306 305 305 304 303 303 302 301 300
327 327 326 326 327 327 326 326 327 327 327 327 327 327 327 327 327 327 327 327 327 326 326 325 326 326 326 326 326 326 326 326 327 327 327 327 327 327 326 325 324 324 323 322 321 319 318 317 315 314 313 312 310 310 308 308 307 306 306 305 305 304 303 303 303 302 301 300 300
327 326 326 326 327 327 327 327 327 327 327 327 327 327 327 327 327 327 327 326 326 326 325 325 326 326 326 326 326 326 326 326 327 327 327 328 327 326 326 324 324 323 322 321 318 317 315 314 313 312 310 309 308 307 306 305 305 305 304 303 303 303 302 302 301 301 301 300 300
327 327 326 326 326 326 327 327 327 327 327 327 327 327 327 327 327 327 326 326 325 325 325 325 325 326 326 326 326 326 326 326 327 327 327 327 326 325 324 323 322 321 320 318 316 315 313 312 311 310 309 308 307 306 305 304 303 303 302 302 301 301 301 301 300 300 300 300 300
327 327 326 326 326 326 326 326 327 327 327 327 327 327 327 326 326 326 326 325 325 324 324 325 325 326 326 326 326 325 326 326 327 327 326 326 325 324 323 322 320 319 317 315 314 313 312 311 309 309 308 307 306 305 304 303 302 301 300 300 300 300 300 300 300 300 300 300 300
327 327 327 326 325 325 325 325 326 327 327 327 326 326 326 325 325 325 325 325 324 324 324 325 325 326 326 326 326 326 325 325 325 325 325 325 324 322 320 319 318 317 315 313 312 311 310 309 308 307 307 305 305 304 303 301 301 300 299 299 299 299 299 299 299 299 299 299 299
327 327 327 327 326 325 325 325 326 326 326 326 326 326 325 324 324 324 324 324 324 325 325 325 326 326 326 326 326 325 325 324 324 323 323 322 320 319 318 317 315 314 313 312 311 310 309 308 307 306 305 304 303 302 301 301 300 299 299 298 298 298 298 298 298 298 298 298 299
327 327 327 327 326 325 325 325 325 325 325 325 326 325 325 324 324 324 324 324 324 325 325 325 326 326 326 326 325 325 324 323 322 321 320 318 317 317 315 314 313 312 312 311 310 309 308 307 306 305 304 303 302 301 300 300 300 299 298 298 297 297 297 297 298 298 298 298 299
327 326 326 326 326 326 325 325 325 324 324 325 325 324 324 324 324 324 324 324 324 324 324 325 325 325 324 325 324 323 323 322 321 319 318 316 315 314 314 313 312 311 310 309 309 308 308 307 306 305 303 302 301 300 299 299 298 298 298 297 298 297 297 297 298 298 299 299 299
326 326 326 326 326 325 325 325 325 324 324 324 324 324 324 324 324 324 323 323 324 324 324 325 325 324 323 323 323 322 321 320 319 317 316 315 314 313 312 312 311 310 309 308 308 308 307 307 306 304 303 302 300 300 299 298 298 298 298 298 298 298 298 297 297 298 298 298 298
326 326 326 326 325 325 325 325 325 324 324 324 323 323 324 324 323 323 323 323 324 324 324 324 323 323 322 322 321 320 319 318 317 316 315 314 314 313 312 311 310 309 308 308 308 308 307 306 305 304 303 301 300 299 299 299 298 298 298 299 298 298 298 297 297 297 297 297 297
325 325 325 325 325 325 325 325 324 324 324 323 323 323 323 323 323 323 323 323 323 323 323 323 322 322 322 321 320 319 318 316 316 315 314 313 312 311 310 310 309 308 308 308 308 307 306 305 304 303 302 301 300 299 299 299 298 298 298 298 298 298 297 297 297 297 297 296 296
325 325 325 325 325 325 324 325 324 324 324 324 324 323 323 323 322 322 323 323 322 322 322 323 322 321 320 319 318 317 315 315 314 314 313 311 311 310 309 308 308 308 307 308 307 306 305 304 304 303 302 301 300 300 299 299 298 298 298 297 297 297 297 296 296 296 296 295 295
324 324 324 324 324 324 324 325 324 324 324 324 324 323 323 322 322 322 322 322 322 322 322 322 321 319 319 318 316 315 314 313 313 312 311 310 309 309 308 308 308 307 307 307 306 305 305 304 303 302 301 301 300 299 299 298 298 298 297 297 296 296 296 296 295 295 295 294 294
324 324 324 324 324 324 324 324 325 325 324 324 323 323 322 322 322 322 323 322 322 321 321 320 318 317 316 316 314 313 313 312 312 311 310 309 309 308 308 307 307 306 306 306 306 305 304 304 303 302 301 300 299 298 298 298 297 297 296 296 296 295 295 294 294 294 294 293 293
324 324 324 324 324 324 324 324 325 324 324 323 323 322 322 322 322 322 322 322 321 320 319 318 317 316 315 313 313 312 312 311 311 310 309 309 308 308 307 306 306 306 305 306 305 305 304 303 302 301 300 299 298 297 297 297 296 296 295 295 295 294 294 293 293 293 293 292 292
323 323 324 324 324 324 324 324 324 324 323 323 323 322 322 322 322 321 321 321 320 320 319 317 316 315 314 314 312 311 311 310 309 309 308 308 307 306 306 305 305 305 305 305 305 304 303 302 301 300 299 299 297 297 296 295 295 294 293 293 293 293 292 292 292 292 291 291 290
323 323 323 323 324 324 324 324 324 323 323 322 322 322 322 322 321 321 320 319 319 318 317 316 315 314 314 313 312 311 310 309 308 308 307 307 306 306 305 304 305 305 305 304 304 303 302 301 300 299 298 297 296 295 294 294 293 292 292 291 291 291 291 290 290 290 290 290 289
322 323 323 323 323 324 324 324 323 323 322 322 321 321 320 321 321 320 319 317 317 316 315 315 314 313 312 311 311 310 309 308 308 307 307 306 305 305 304 304 304 304 304 303 303 302 301 300 299 298 297 296 294 294 293 292 292 291 291 291 290 290 290 290 290 290 290 290 289
322 323 322 322 323 323 323 323 322 322 322 321 320 320 320 320 320 319 318 316 315 314 313 312 312 311 310 310 310 309 309 308 307 306 306 305 305 304 303 303 303 303 302 302 302 301 300 299 298 297 296 294 293 292 292 291 291 290 290 290 290 290 290 289 290 290 290 290 289
322 323 322 322 322 322 322 322 322 321 321 320 321 320 320 320 319 317 316 314 314 313 312 311 310 310 310 309 308 308 308 307 307 306 306 305 304 304 303 302 302 302 301 301 301 300 299 299 297 296 295 293 292 292 291 290 290 290 290 290 289 289 290 289 290 290 290 290 289
322 322 322 322 321 321 321 321 321 321 320 320 320 320 319 319 317 316 315 314 313 312 311 310 310 309 309 308 307 307 307 307 307 306 306 304 304 303 303 302 301 300 300 300 300 299 298 298 297 296 295 293 292 291 291 290 290 289 289 289 289 289 289 289 289 289 289 289 290
322 322 322 322 321 321 321 320 320 320 320 320 319 318 318 317 316 315 314 314 313 312 310 309 308 308 308 307 306 306 306 306 306 306 305 304 303 302 302 301 300 300 299 299 299 298 298 297 297 296 295 293 292 291 291 290 289 289 289 288 288 288 288 288 289 289 289 289 289
322 322 322 321 321 321 320 320 320 320 320 319 318 317 317 316 315 314 313 313 312 311 309 308 308 307 307 306 306 305 305 305 305 304 304 303 302 302 301 300 299 299 298 298 298 298 297 297 296 296 295 293 292 291 290 290 289 288 288 288 288 288 288 288 288 288 289 289 289
Wind_Speed
13 11 10 9 9 8 8 7 7 7 7 8 8 8 8 8 8 8 7 7 7 7 7 7 7 7 9 11 13 13 13 14 14 14 14 14 13 13 13 13 12 12 12 11 11 10 10 10 8 6 5 5 6 6 6 5 6 6 6 5 5 5 5 6 5 6 6 5 4
14 13 12 10 9 8 8 8 8 8 8 7 8 8 8 8 8 8 8 8 7 7 6 6 7 8 10 12 13 13 13 14 14 14 14 14 14 14 13 12 13 13 12 12 11 10 9 10 8 7 6 5 6 6 6 6 6 6 6 7 4 3 3 4 4 4 4 4 4
14 14 12 12 11 10 9 8 9 9 9 8 8 8 8 7 7 7 7 8 8 7 7 6 8 9 11 12 12 12 12 13 14 14 13 13 14 14 13 12 13 13 13 12 11 10 9 9 8 7 6 5 6 6 6 7 6 6 6 7 4 3 2 2 2 3 3 3 4
15 14 13 13 14 13 11 9 10 11 11 9 9 9 8 8 7 7 8 8 9 8 8 7 8 9 10 11 12 12 12 12 14 14 13 13 13 14 14 13 13 13 13 12 12 11 10 10 7 6 6 6 7 7 6 6 6 6 5 5 4 3 3 2 2 2 2 2 3
16 15 13 13 15 14 12 11 12 12 11 9 9 8 8 8 8 8 8 8 8 8 9 9 8 8 9 11 12 13 13 13 13 13 12 13 13 13 14 14 13 13 12 12 12 11 11 10 7 6 6 6 6 6 6 6 6 5 4 4 3 3 3 3 2 2 2 2 2
15 15 14 13 15 14 12 11 13 12 11 10 10 10 9 8 8 9 9 9 9 10 10 10 9 9 9 11 12 12 12 13 12 12 12 13 12 13 14 14 13 13 12 12 12 12 11 10 6 5 5 6 6 6 6 5 4 4 4 4 3 3 3 4 3 3 3 3 4
16 16 15 14 15 14 13 12 12 12 11 10 12 12 12 11 11 11 11 10 9 10 10 9 9 9 9 11 11 12 12 12 12 12 13 12 12 13 13 13 13 13 12 12 12 11 10 9 6 5 5 5 5 5 6 5 4 4 4 4 4 4 4 4 4 3 4 5 5
15 16 16 15 15 15 14 14 13 12 12 10 12 14 14 13 13 13 12 11 10 9 9 8 10 10 10 11 11 12 12 12 12 12 12 12 12 13 13 13 13 13 13 12 12 11 10 8 6 5 5 5 4 5 6 7 6 6 5 5 4 4 4 4 4 4 5 6 6
14 15 15 15 15 15 15 15 14 13 12 12 13 14 15 14 14 14 13 11 10 10 9 9 11 11 12 12 12 12 12 12 12 12 12 12 13 13 13 12 13 13 13 12 12 11 10 7 6 5 5 5 5 5 7 8 8 7 6 5 5 5 5 5 5 5 6 6 7
14 15 15 15 15 15 15 15 14 14 14 13 14 14 14 14 14 13 12 10 10 10 10 10 11 12 12 12 12 12 11 11 12 12 12 12 13 13 13 12 13 13 12 11 11 11 10 8 7 6 6 5 6 6 7 8 8 7 6 5 5 6 6 6 6 7 7 6 7
15 15 15 14 15 15 15 15 14 14 13 13 14 14 14 14 14 13 11 10 10 11 12 11 11 12 12 12 11 11 11 11 11 12 12 13 13 13 13 12 13 13 12 11 10 10 9 8 8 8 8 6 6 6 7 8 8 7 7 5 6 7 7 7 7 6 6 7 7
16 15 15 14 15 15 14 14 13 12 13 13 13 13 13 13 14 13 12 12 12 12 12 11 12 12 11 10 11 11 11 11 11 12 12 13 13 13 13 13 13 13 12 11 10 9 8 8 8 9 9 8 6 6 7 8 8 8 8 7 7 8 8 8 7 6 6 7 8
16 15 14 14 15 15 14 14 12 12 12 13 13 13 13 13 14 14 13 14 13 12 11 11 11 11 11 10 10 11 11 11 12 12 12 12 13 13 14 13 13 13 12 11 10 9 8 9 9 9 9 8 7 7 7 8 8 8 8 8 8 8 8 8 8 7 8 8 8
16 15 15 15 15 15 14 14 12 11 12 13 13 12 12 12 13 13 13 13 13 11 10 10 10 10 10 11 11 11 11 11 12 12 12 12 12 13 13 13 13 12 11 10 10 10 10 9 9 9 9 8 8 8 8 9 8 8 9 9 9 9 9 9 9 9 9 9 9
17 16 15 15 15 14 13 14 12 11 12 13 13 12 12 11 12 13 13 13 13 11 10 10 9 9 10 11 11 11 12 11 12 12 12 13 13 13 13 12 12 12 11 10 10 10 10 10 9 9 9 9 9 9 9 9 8 8 9 9 9 9 9 9 9 9 9 10 9
17 16 16 15 15 15 14 13 11 11 12 12 12 12 12 11 12 12 13 13 12 11 10 10 9 9 10 10 11 11 12 11 12 12 13 13 13 13 12 12 12 11 11 11 10 10 9 9 9 9 9 9 9 9 9 8 8 8 8 9 9 9 9 9 9 9 9 10 10
17 17 16 16 16 16 15 14 12 11 12 12 13 13 12 11 11 12 13 13 12 11 11 11 10 10 10 10 10 11 11 11 12 12 12 12 13 12 12 11 11 11 11 11 10 9 9 8 8 8 9 9 9 9 9 9 8 9 9 9 9 9 9 9 9 9 9 10 10
18 17 17 17 17 17 16 15 13 13 13 13 13 13 13 12 12 12 13 13 12 12 12 12 11 11 11 11 10 10 10 11 11 12 12 12 12 12 12 11 11 11 11 10 10 10 9 9 9 9 9 10 10 10 9 9 9 9 10 10 10 9 9 9 9 9 9 9 9
18 17 17 17 17 17 17 16 15 14 14 14 13 13 13 13 13 13 13 13 13 13 13 12 12 11 11 12 11 10 10 10 11 12 12 12 12 11 11 11 11 10 10 10 10 10 11 11 11 11 11 10 10 10 10 10 10 10 10 10 10 10 10 10 9 9 9 9 9
18 18 17 17 17 17 17 16 16 15 14 13 14 14 14 14 14 14 14 14 13 13 13 12 12 12 12 12 12 11 10 9 11 12 12 11 11 11 11 11 10 10 10 10 11 11 11 12 12 12 12 12 12 12 11 11 11 11 11 10 10 10 10 10 10 10 10 10 9
18 18 17 17 16 16 16 16 15 15 14 13 14 14 14 14 14 15 15 14 14 13 13 13 13 12 12 12 12 12 10 9 10 11 11 10 10 10 11 11 11 10 10 10 11 11 12 12 12 13 13 13 13 12 12 12 12 11 11 10 10 10 10 10 10 10 10 10 9
18 17 17 16 16 15 15 15 15 15 14 14 14 14 14 14 14 14 14 14 14 14 13 13 13 13 13 12 12 12 10 9 9 10 10 9 9 10 11 11 11 11 11 11 12 12 12 12 13 12 12 12 12 12 12 13 12 12 12 11 11 11 11 11 10 10 11 10 10
17 17 16 15 15 15 14 15 15 14 14 14 14 14 14 14 14 14 14 14 13 14 13 13 12 12 12 12 12 12 11 9 9 9 9 9 10 11 11 11 12 12 12 11 12 12 12 12 12 12 12 12 12 13 13 13 13 13 13 13 12 12 12 11 11 11 11 11 11
17 16 15 13 15 15 15 15 15 14 14 14 15 15 15 14 14 14 14 14 14 14 13 11 11 12 12 12 12 12 11 11 10 10 10 10 11 11 12 11 11 11 11 10 11 12 12 11 11 11 11 11 12 12 12 12 12 13 13 14 13 13 12 12 12 12 12 11 11
17 16 15 14 15 15 15 15 15 15 14 14 14 15 15 15 14 14 14 14 14 14 13 12 11 11 11 11 11 11 11 11 11 11 11 11 12 12 11 10 9 9 9 9 13 15 15 13 12 11 10 11 11 11 11 11 12 13 13 13 14 14 14 14 13 13 12 12 11
17 16 16 16 16 16 16 16 15 15 14 14 14 15 15 15 14 14 14 14 14 13 13 13 12 11 10 10 11 11 11 11 11 12 13 12 13 12 11 9 8 8 8 12 16 19 19 18 16 14 12 11 11 11 11 10 12 12 13 13 13 14 14 14 13 13 12 12 12
16 16 16 16 16 16 16 16 15 15 14 14 14 15 15 15 14 14 14 14 14 13 13 12 11 10 10 10 11 11 11 10 11 12 13 13 13 12 11 9 8 8 9 15 19 20 20 20 19 17 15 13 12 11 11 11 12 12 12 12 13 13 13 13 13 12 12 11 12
16 16 16 16 16 16 16 16 16 15 15 15 15 15 15 15 14 14 14 14 14 13 12 10 10 9 8 8 10 12 12 11 11 12 12 13 13 12 11 9 9 9 13 19 21 21 21 21 20 19 17 15 13 12 12 12 12 11 11 11 11 12 12 12 12 12 12 12 11
16 16 17 17 17 17 16 16 16 16 15 15 15 15 15 15 15 15 15 15 14 13 11 9 8 7 7 8 10 11 12 12 11 11 11 12 12 12 11 11 11 13 16 21 22 22 22 22 21 20 19 16 12 10 10 10 10 10 10 9 10 10 10 10 10 11 11 11 11
16 17 17 17 17 17 17 17 16 16 15 15 15 16 16 15 15 15 15 15 15 13 11 9 8 8 9 10 10 11 11 11 11 11 12 13 12 12 12 12 12 14 18 22 23 23 23 22 22 21 20 18 14 11 10 9 9 9 9 9 10 10 11 11 11 11 11 10 11
16 17 17 17 17 17 17 17 16 16 15 15 16 16 16 16 16 16 15 15 14 12 11 10 11 11 11 11 11 11 11 11 11 11 12 13 13 13 13 14 14 16 18 23 23 23 23 23 22 21 20 18 14 11 10 10 10 9 9 9 10 11 11 11 11 11 11 11 10
16 17 17 17 17 17 16 16 16 16 16 16 17 16 16 16 16 15 14 14 13 12 12 11 12 12 12 12 12 12 12 12 12 12 12 13 14 14 15 15 15 16 19 23 24 24 24 24 23 22 20 18 15 13 12 11 11 10 10 11 12 11 11 9 10 10 11 11 10
16 16 17 17 17 16 16 16 16 16 16 17 17 16 16 16 15 14 14 13 13 13 13 13 13 13 13 13 13 13 13 12 12 13 13 14 15 15 15 14 14 16 20 24 24 24 24 24 23 22 21 19 15 13 13 12 11 10 11 11 11 11 11 11 10 10 10 10 10
16 16 17 17 16 16 16 16 16 16 16 17 16 16 16 15 15 14 13 12 12 12 12 13 13 13 14 14 14 14 13 12 12 13 14 15 16 16 15 13 12 16 21 25 25 25 25 24 23 23 21 19 15 13 13 13 11 11 11 12 11 11 11 11 10 10 10 10 10
16 16 17 16 16 16 16 16 16 16 16 16 16 16 15 15 15 14 13 11 11 11 11 11 11 12 12 13 13 14 14 14 14 14 15 15 16 16 16 14 14 18 22 25 25 25 25 25 24 23 21 17 14 13 13 13 13 13 13 13 13 12 12 11 10 10 10 10 10
17 17 16 16 16 16 16 16 16 16 17 17 16 16 15 14 14 13 12 11 12 12 11 11 11 11 12 12 12 13 14 15 16 16 16 16 17 17 17 16 17 20 23 25 25 25 25 25 24 23 20 16 13 12 12 12 12 13 14 14 13 13 12 11 11 10 10 9 10
17 17 16 15 15 16 16 16 16 17 17 17 16 16 15 14 13 12 12 12 12 12 12 12 12 12 13 13 12 13 14 15 16 17 17 17 17 18 18 18 18 20 22 24 25 26 25 25 24 22 19 15 13 12 12 11 11 12 13 14 13 13 12 11 10 10 9 9 10
18 17 17 16 15 15 16 16 16 17 17 16 16 15 14 14 13 12 12 12 13 13 13 13 13 13 13 13 13 13 14 14 16 17 18 17 18 19 20 20 19 19 21 24 25 25 25 25 24 21 18 15 14 13 11 11 11 11 12 12 11 11 10 9 9 9 10 10 12
18 18 18 17 16 16 16 16 16 16 16 16 15 15 14 13 12 12 12 12 13 13 14 13 13 13 13 13 13 13 14 14 15 17 18 18 18 19 20 20 19 18 20 23 24 25 25 25 24 22 19 16 14 12 11 11 12 12 12 11 11 11 10 9 8 9 10 12 14
18 19 19 18 18 17 17 17 16 15 15 15 15 15 14 13 12 12 11 11 12 12 13 13 14 14 14 13 14 14 14 13 14 15 17 18 18 20 21 20 19 19 20 22 24 25 25 25 24 22 19 15 13 12 11 11 12 12 12 11 10 10 9 9 9 9 10 11 13
17 18 19 20 19 18 18 17 16 15 14 14 15 14 13 13 12 12 11 11 12 12 11 12 14 14 14 13 13 14 15 14 13 14 16 18 18 18 19 20 20 19 19 21 23 24 24 24 23 22 18 14 12 11 11 11 12 12 12 11 10 10 9 9 9 9 9 10 10
Wind_Direction
194 193 191 191 190 189 187 186 186 184 182 182 181 178 176 176 177 178 179 182 184 185 187 188 190 190 190 190 189 190 192 194 195 196 196 196 195 194 193 194 194 195 196 198 193 190 187 189 189 189 188 192 199 205 207 208 209 210 211 209 210 210 210 211 211 207 201 195 181
195 193 191 190 189 188 187 186 186 185 184 184 183 179 176 177 179 179 180 183 184 184 185 187 190 190 190 190 189 190 191 193 194 195 196 196 195 194 193 194 195 195 196 197 194 191 187 188 188 189 190 191 197 202 205 206 204 205 206 206 203 200 203 211 214 208 198 193 179
196 193 192 191 190 189 188 186 186 186 185 184 183 180 178 178 180 180 181 183 184 184 185 187 190 191 190 189 189 189 190 192 193 193 194 196 195 193 193 194 195 195 196 197 195 191 187 185 187 189 190 191 195 199 201 201 199 200 200 199 188 174 171 190 207 202 190 186 177
197 195 194 193 192 191 189 188 187 186 185 183 183 181 179 179 182 182 181 183 185 186 187 188 189 189 189 188 188 188 189 190 191 192 193 194 193 193 192 193 194 195 196 197 195 191 187 185 186 189 192 193 196 199 200 197 195 195 193 188 172 159 154 154 170 175 177 180 173
199 197 196 195 194 192 191 189 188 186 185 182 183 182 181 180 182 182 182 183 186 188 189 188 188 187 186 186 187 187 188 189 190 191 192 192 192 192 191 191 192 194 195 196 195 191 186 184 184 188 193 194 198 199 198 192 191 188 181 167 158 155 154 146 145 150 159 168 166
200 199 197 196 195 193 192 191 189 187 185 183 184 184 182 180 182 182 183 185 187 188 188 188 189 187 185 183 185 186 187 188 189 190 191 191 191 190 190 191 191 192 193 195 194 190 186 184 184 188 192 196 200 197 187 171 172 172 167 153 148 149 152 149 147 148 155 161 160
201 200 198 197 196 195 193 191 190 188 186 185 187 186 185 182 183 183 183 184 184 185 187 188 189 188 185 182 184 186 186 186 188 190 190 189 189 189 189 189 190 192 192 193 192 190 186 184 184 187 190 192 194 184 170 152 153 158 160 155 148 148 152 153 148 149 154 159 155
202 201 199 198 196 195 194 192 190 189 188 188 189 189 187 185 184 183 183 183 183 183 185 187 190 189 187 184 185 186 186 186 187 189 189 189 189 188 188 188 190 191 192 192 191 188 185 181 181 184 187 187 182 173 167 162 167 170 170 159 150 150 153 152 149 150 154 156 156
203 202 200 198 197 196 195 193 192 191 191 191 191 190 188 186 184 183 183 183 182 182 184 188 190 190 189 188 187 186 186 186 186 187 188 188 188 187 187 187 190 192 192 191 190 187 183 177 178 182 186 185 181 175 171 170 177 179 174 156 150 150 151 148 149 151 154 157 159
202 201 199 198 197 196 195 194 194 194 193 193 192 191 189 186 185 184 183 182 181 182 185 189 190 190 190 190 189 188 187 186 186 186 187 187 187 186 185 186 190 191 191 190 187 184 181 178 181 186 189 187 183 176 171 170 175 173 164 145 146 147 148 147 148 150 153 155 154
202 200 199 197 196 195 195 194 195 195 195 194 192 191 189 187 186 185 183 180 182 184 187 190 190 191 190 191 190 189 187 186 186 186 186 186 186 185 185 186 189 191 190 187 182 180 180 182 185 188 189 185 180 172 166 165 165 158 149 138 141 143 144 145 145 144 144 142 138
202 200 199 197 195 194 194 194 195 195 195 194 193 191 189 188 187 185 183 181 184 186 189 191 191 191 190 190 190 189 187 186 186 186 186 186 186 185 185 186 188 188 188 183 177 177 180 184 186 186 186 181 169 158 154 155 152 148 143 141 142 143 143 142 139 135 132 130 127
202 200 198 197 195 194 193 194 194 194 194 194 192 191 189 187 185 184 183 182 184 186 189 191 191 191 191 190 189 188 187 186 185 186 186 186 186 186 185 186 186 186 185 180 175 176 179 181 182 182 180 172 157 150 149 151 148 146 145 145 145 144 141 139 134 130 127 126 124
202 200 198 196 194 193 193 193 194 194 194 194 192 190 188 185 184 184 184 183 184 186 187 188 190 191 192 190 189 187 186 185 185 186 186 186 186 186 186 186 184 183 181 176 174 176 177 174 174 175 172 163 153 150 150 152 150 149 148 147 146 143 139 136 132 130 128 127 125
202 200 198 195 194 193 192 193 193 194 193 194 191 189 186 184 182 183 184 183 183 184 185 185 186 190 193 192 189 187 185 184 185 186 186 186 187 187 186 186 183 180 177 173 173 174 173 168 169 169 165 156 150 148 149 151 150 149 147 145 143 139 136 134 133 131 130 129 126
201 200 198 195 194 193 192 192 193 193 193 192 189 187 185 182 181 182 184 182 182 183 185 185 185 188 192 193 190 188 186 185 186 187 187 187 187 187 186 185 181 177 173 170 170 169 167 165 165 162 156 148 144 142 142 143 141 139 137 136 134 133 132 132 131 130 129 128 126
201 200 198 196 195 194 193 193 193 193 192 190 187 185 184 181 180 181 182 180 180 182 185 185 185 186 189 190 189 187 186 186 187 188 188 188 187 186 185 182 177 172 168 166 164 160 157 154 150 145 140 136 133 132 131 129 127 125 124 124 124 125 126 126 126 125 124 123 123
201 200 199 198 197 196 195 194 194 193 190 187 185 184 183 181 180 179 179 178 180 182 184 185 185 186 187 186 186 185 186 186 187 188 189 188 187 185 182 177 170 165 161 157 153 147 141 135 130 127 125 124 123 122 120 118 116 115 115 116 117 117 118 118 119 119 119 119 119
201 200 199 199 198 197 196 195 195 193 190 186 184 184 184 181 178 177 176 176 179 181 182 183 185 186 186 183 182 183 184 187 188 188 188 187 185 181 176 168 160 154 148 144 139 134 130 126 124 121 120 118 117 115 113 112 110 110 111 111 112 112 112 112 113 113 113 114 115
202 200 200 199 199 198 197 196 195 193 190 186 184 184 183 180 176 174 174 175 178 180 181 182 185 186 185 180 180 180 182 187 187 187 186 185 181 174 165 154 146 139 134 131 129 128 126 125 123 122 120 119 117 115 112 110 109 108 108 107 107 107 108 109 109 110 110 112 113
202 201 200 199 199 198 197 197 196 194 191 187 184 183 181 177 174 173 173 175 178 179 181 183 185 185 183 178 178 178 180 184 184 183 181 179 172 161 149 140 133 129 125 125 124 124 124 124 123 123 121 120 118 116 114 112 110 108 107 105 105 105 105 106 107 108 109 110 111
203 201 200 199 198 197 197 196 196 194 191 187 183 180 178 174 173 173 173 174 177 180 181 183 185 184 181 177 176 176 176 178 178 177 173 167 154 143 135 131 128 127 125 124 124 123 122 122 122 122 121 120 119 118 117 116 113 111 108 106 105 105 104 105 106 107 108 109 110
202 201 199 197 196 195 194 195 195 194 191 187 181 177 175 172 172 172 173 175 178 180 181 182 184 183 179 175 174 173 171 169 168 164 158 147 136 130 127 127 127 128 127 127 126 124 122 120 120 120 119 118 119 119 118 117 116 115 113 111 109 108 107 107 108 109 110 111 111
201 200 198 196 194 193 193 194 194 193 190 186 180 175 172 171 170 171 172 175 178 179 179 179 181 180 177 174 172 169 165 161 156 151 142 133 128 127 126 125 127 128 129 130 131 130 127 124 122 120 119 118 118 117 117 117 118 118 118 116 114 112 111 111 112 112 113 113 112
200 199 198 196 193 193 192 193 193 191 188 184 177 172 169 169 170 171 172 175 177 177 177 177 177 176 173 170 167 164 159 154 149 141 135 129 128 127 126 124 126 128 129 130 132 132 131 129 128 126 123 120 118 116 115 117 119 120 120 119 118 117 117 116 117 118 118 116 113
199 199 198 196 194 193 192 192 191 189 185 179 173 169 168 169 169 170 171 173 174 174 174 175 174 171 167 164 162 159 155 150 145 139 135 132 131 130 128 126 126 127 129 133 134 133 131 130 130 128 126 123 121 119 118 118 119 120 120 120 121 121 121 121 121 119 116 112 111
199 199 198 197 195 193 192 190 188 184 179 174 170 168 167 168 168 169 170 171 171 172 172 172 168 163 159 157 157 156 152 147 142 140 138 137 136 133 131 128 127 128 132 136 135 133 132 130 129 128 126 123 122 122 122 121 120 120 120 120 121 122 123 122 119 116 111 108 110
197 197 197 197 196 193 191 188 185 180 175 170 168 167 166 167 167 168 169 169 169 169 169 167 161 156 153 154 155 152 148 143 141 140 140 138 136 134 131 128 128 131 135 137 135 133 131 129 128 126 124 122 121 121 121 122 123 122 121 120 121 122 122 122 120 118 115 113 111
196 196 196 196 195 193 190 187 183 178 172 168 166 165 165 166 166 167 168 168 168 167 165 160 154 151 150 151 150 146 142 140 140 139 138 137 134 131 129 127 128 132 135 137 134 132 130 128 126 124 123 122 121 122 123 123 123 122 122 121 122 123 123 122 120 118 117 115 113
195 195 195 195 193 191 188 186 181 175 169 165 165 164 165 166 167 167 168 167 167 165 161 154 151 151 150 148 144 141 139 139 138 137 136 134 132 129 128 127 129 133 135 136 133 131 129 126 125 123 122 121 120 120 120 121 121 120 120 120 121 121 121 119 118 117 117 116 114
194 194 194 193 191 189 186 183 178 172 167 164 164 164 165 166 167 168 167 166 164 160 155 150 149 148 146 142 140 138 138 137 137 136 135 134 131 129 128 128 130 132 134 135 132 130 128 126 124 123 121 119 118 117 118 118 117 117 117 118 119 119 118 115 115 115 116 115 113
193 192 192 191 188 186 184 180 174 170 166 164 164 165 165 166 166 166 164 162 159 154 151 148 147 144 141 138 138 137 138 138 137 136 134 132 130 129 128 127 130 132 133 134 131 129 127 125 123 121 118 116 114 114 115 115 113 113 112 114 114 114 114 113 112 113 113 113 111
191 190 189 188 185 183 180 175 171 167 165 165 165 165 165 164 163 162 161 159 156 154 152 150 147 145 143 141 139 138 138 137 136 134 132 130 128 127 126 125 128 131 133 134 131 128 126 124 122 119 116 113 112 112 113 113 112 110 109 108 107 106 105 104 105 106 107 106 106
189 187 186 184 182 179 175 171 167 165 164 164 164 163 162 161 161 161 160 157 155 154 152 150 148 146 144 144 141 140 138 135 134 132 131 129 127 126 125 125 128 133 134 133 130 128 126 123 120 118 115 112 110 110 110 110 109 108 106 104 102 100 97 96 96 97 99 101 101
185 183 182 180 177 174 170 166 164 162 162 162 162 161 160 160 160 159 156 152 149 147 146 144 142 141 140 141 140 139 137 134 133 132 131 129 127 125 125 126 128 132 134 132 130 128 126 123 121 118 115 112 110 109 109 108 107 106 105 103 101 99 97 94 93 93 95 98 100
180 178 176 174 172 169 166 163 162 162 162 161 160 160 159 159 158 155 150 144 141 139 138 137 136 136 136 137 138 137 137 136 135 134 132 130 127 126 126 127 129 132 133 131 130 128 126 124 122 119 116 113 111 111 110 108 107 106 105 103 102 100 99 97 95 95 96 98 101
175 172 170 167 166 165 163 162 162 162 162 161 160 159 158 156 153 150 145 141 139 138 138 137 137 138 138 137 138 137 137 136 135 135 134 132 129 128 127 128 130 132 132 132 130 129 127 126 123 120 118 115 115 113 112 109 108 107 106 104 103 102 101 99 98 97 98 100 102
170 167 164 161 162 162 162 162 162 162 162 160 159 158 156 153 150 147 145 143 141 140 139 139 139 139 138 136 135 134 135 135 135 135 134 133 132 130 129 129 130 132 132 133 131 130 129 127 124 122 120 118 118 117 115 113 112 110 109 107 106 104 103 102 100 99 99 100 101
166 163 160 158 159 161 162 163 163 162 160 158 157 155 154 151 148 147 145 144 142 141 140 139 138 136 134 132 131 132 133 134 134 134 134 133 132 131 130 130 131 132 133 134 133 131 130 127 125 123 122 120 119 119 118 116 115 114 113 111 110 108 106 105 104 102 101 100 101
164 161 158 158 159 160 162 163 162 160 157 155 155 154 152 148 145 143 141 139 138 137 135 135 134 133 131 130 129 130 131 131 131 131 132 131 131 130 129 129 130 131 133 134 134 132 130 128 126 125 123 119 120 120 119 119 118 118 117 117 116 114 112 110 108 107 105 104 104
164 160 158 157 159 160 161 161 159 157 154 154 153 151 147 143 139 137 136 134 134 132 130 130 130 130 129 129 128 128 128 127 126 127 128 128 128 128 128 128 129 131 133 135 135 133 131 129 127 126 124 121 121 121 122 122 122 122 122 122 122 121 118 117 114 112 111 111 110